Погода в Зулэбе

Россия / Республика Коми     62°11′17″N   52°27′40″E
темп.,
°C
ветер,
м/с
пор.,
м/с
влажн.,
%
обл.,
%
осадки,
мм/ч
давл.,
гПа
погр.,
м
7 марта, вс
вс700:00−22юз229998 0.0 100720
03:00−23ююз229994 0.1 100720
06:00−23ю2299100 0.1 100759
09:00−20ю239799 0.1 1007222
12:00−15ю238699 0.0 1006494
15:00−14ююв1286100 0.1 1005679
18:00−18в1296100 0.0 100520
21:00−19вюв229998 0.1 100524
8 марта, пн
пн800:00−20в2210096 0.1 100424
03:00−22в239997 0.1 100468
06:00−23всв2599100 0.1 1004125
09:00−20всв3595100 0.1 1003254
12:00−16св3690100 0.0 1003420
15:00−15св4788100 0.0 1004614
18:00−19ссв3993100 0.0 1005358
21:00−22ссв399698 0.0 1006267
9 марта, вт
вт900:00−25с399686 0.0 1007269
03:00−29с389554 0.0 1010245
06:00−31с37950 0.0 1012243
09:00−29с36911 0.0 1014344
12:00−25с358861 0.0 1015479
15:00−23с368873 0.0 1016538
18:00−27ссз239667 0.0 101722
21:00−29ссз229634 0.0 101919
10 марта, ср
ср1000:00−30сз12970 0.0 101919
03:00−31зсз12980 0.0 102019
06:00−31з22980 0.0 101919
09:00−25з249310 0.0 1019252
12:00−20з359193 0.0 1018449
15:00−18з379096 0.0 1016489
18:00−18з31095100 0.1 1014548
21:00−16з3896100 0.3 1013333
11 марта, чт
чт1100:00−15зюз3796100 0.3 1011260
03:00−9сз41291100 0.6 1010864
06:00−9сз51288100 0.1 1011727
09:00−9сз51279100 0.1 1012678
12:00−8зсз4108097 0.0 1013657
15:00−8зсз5108081 0.0 1014761
18:00−12з3138717 0.0 1015436
21:00−13з4128913 0.0 1016517